Regional Weather Roundup
Issued by NWS

Home | Current Version | Previous Version | Text Only | Print | Product List | Glossary On
Versions: 1 2 3 4 5 6 7 8 9 10 11 12 13 14 15 16 17 18 19 20 21 22 23 24 25 26 27 28 29 30 31 32 33 34 35 36 37 38 39 40 41 42 43 44 45 46 47 48 49 50
438
ASUS43 KMPX 131010
RWRMN
WEATHER ROUNDUP FOR MINNESOTA
NATIONAL WEATHER SERVICE TWIN CITIES/CHANHASSEN MN
400 AM CST SAT FEB 13 2016


NOTE: "FAIR" INDICATES FEW OR NO CLOUDS BELOW 12,000 FEET WITH NO
SIGNIFICANT WEATHER AND/OR OBSTRUCTIONS TO VISIBILITY. N/A MEANS
CURRENT SKY AND/OR WEATHER CONDITIONS ARE NOT AVAILABLE.

MNZ060>063-068>070-131100-
   Twin Cities Metro

CITY           SKY/WX    TMP DP  RH WIND       PRES   REMARKS
TWIN CITIES    PTCLDY    -5 -13  68 NW7       30.64F WCI -19
ST PAUL        PTCLDY    -4 -13  65 NW8       30.67S WCI -19
CRYSTAL        PTCLDY    -6 -14  68 NW6       30.64S WCI -19
BLAINE         PTCLDY    -6 -11  77 NW6       30.62S WCI -18
LAKEVILLE      PTCLDY    -8 -13  77 W3        30.63S
EDEN PRAIRIE   PTCLDY    -5 -14  65 N5        30.62F WCI -16
SOUTH ST PAUL  PTCLDY    -3 -13  61 NW5       30.65R WCI -13
LAKE ELMO      FAIR      -4 -11  71 NW3       30.63F
$$
MNZ001>005-007-008-013>017-022>024-027-028-131100-
   Northwest Minnesota

CITY           SKY/WX    TMP DP  RH WIND       PRES   REMARKS
BEMIDJI        CLOUDY   -23 -28  76 CALM      30.56S
HALLOCK        CLOUDY   -15 -20  76 SE6       30.59F WCI -29
ROSEAU         PTCLDY   -24 -29  76 S5        30.58F WCI -38
WARROAD        CLOUDY   -24 -29  76 SW3       30.57F
THIEF RVR FALL CLOUDY   -17 N/A N/A CALM      30.58F
CROOKSTON      CLOUDY   -11 -17  77 SE3       30.62F
FOSSTON          N/A    -27 -35  68 CALM      30.57F
DETROIT LAKES  CLOUDY   -13 -18  77 CALM      30.56F HAZE
MOORHEAD       CLOUDY    -8 -11  84 S6        30.63S WCI -21
PARK RAPIDS    CLOUDY   -17 -24  70 NE5       30.55F WCI -30
MAHNOMEN       FAIR     -19 -24  77 S3        30.57F
$$
MNZ006-009>011-018-025>026-131100-
   North Central Minnesota

CITY           SKY/WX    TMP DP  RH WIND       PRES   REMARKS
BAUDETTE       CLOUDY   -20 -26  74 CALM      30.55F
FLAG ISLAND    CLOUDY   -18 -24  76 CALM      30.55F
INTL FALLS     CLOUDY   -22 -27  77 CALM      30.55F
WASKISH        CLOUDY   -22 -27  76 CALM      30.57F
LONGVILLE      CLOUDY   -20 -26  76 CALM      30.57F
GRAND RAPIDS   CLOUDY   -15 -20  76 N7        30.55F WCI -31
CRANE LAKE     CLOUDY   -26 -33  68 CALM      30.58R
ORR            CLOUDY   -20 -26  76 CALM      30.50F
COOK           CLOUDY   -24 -29  76 CALM      30.53F
WALKER         FAIR     -18 -23  80 CALM      30.57S
$$
MNZ012-019>021-037-131100-
   Northeast Minnesota

CITY           SKY/WX    TMP DP  RH WIND       PRES   REMARKS
DULUTH         CLOUDY   -13 -21  67 NW14      30.50F WCI -35
ELY            CLOUDY   -20 -26  76 W8        30.51R WCI -39
HIBBING        CLOUDY   -19 -23  81 SW3       30.54S
EVELETH        CLOUDY   -15 -22  70 W3        30.53F
DULUTH HARBOR  CLOUDY    -6 -17  59 SW3       30.64R
TWO HARBORS    CLOUDY    -9 -18  64 NW9G16    30.51F WCI -27
SILVER BAY     CLEAR    -11 -20  64 W5        30.51F WCI -23
GRAND MARAIS     N/A     -9 -17  68 SW6       30.55F WCI -22
G MARAIS ARPRT CLOUDY   -17 -24  70 NW9G17    30.36F WCI -36
$$
MNZ029>031-032-039>041-046>048-054>057-064-131100-
   West Central Minnesota

CITY           SKY/WX    TMP DP  RH WIND       PRES   REMARKS
FERGUS FALLS   CLOUDY    -8 -13  77 CALM      30.65F
WHEATON        CLOUDY    -8 -11  84 CALM      30.64F
MORRIS         CLOUDY    -8 -11  84 CALM      30.61S
ALEXANDRIA     CLOUDY   -10 -16  74 CALM      30.57F
ELBOW LAKE     FAIR      -7 -12  79 CALM      30.60F
WADENA         CLOUDY   -17 -22  76 CALM      30.57S
GLENWOOD       PTCLDY   -11 -17  77 N3        30.58F
APPLETON       CLOUDY    -8 -13  77 W3        30.64F
BENSON         CLOUDY    -8 -11  84 CALM      30.61S
ORTONVILLE     CLOUDY    -8 -13  77 CALM      30.62F
MADISON        CLOUDY    -4  -9  77 CALM      30.64S
WILLMAR        FAIR      -4 -11  71 N3        30.61F
$$
MNZ033>034-036-042>043-049>051-058-059-131100-
   Central Minnesota

CITY           SKY/WX    TMP DP  RH WIND       PRES   REMARKS
ST CLOUD       PTCLDY   -10 -16  74 NW3       30.61F
SAUK CENTRE    FAIR     -12 -17  80 CALM      30.59F
PAYNESVILLE    CLOUDY    -9 -15  74 N3        30.60F
AITKIN         CLOUDY   -18 -27  63 CALM      30.58S
PINE RIVER     CLOUDY   -20 -26  76 CALM      30.60S
BRAINERD       PTCLDY   -16 -22  74 SW3       30.60S
STAPLES        CLOUDY   -17 -20  83 CALM      30.57F
LONG PRAIRIE   FAIR     -13 -17  84 CALM      30.58F
LITTLE FALLS   PTCLDY   -11 -17  77 CALM      30.61F
LITCHFIELD     CLOUDY    -8 -13  77 CALM      30.61F
BUFFALO        PTCLDY    -8 -15  72 CALM      30.64F
MAPLE LAKE     PTCLDY    -8 -14  76 CALM      30.63F
$$
MNZ037-044-045-052-053-131100-
   East Central Minnesota

CITY           SKY/WX    TMP DP  RH WIND       PRES   REMARKS
PRINCETON      PTCLDY    -9 -17  70 CALM      30.61F
MORA           CLOUDY    -8 -17  65 NW5       30.62S WCI -19
CAMBRIDGE      PTCLDY    -8 -17  65 CALM      30.61S
RUSH CITY      PTCLDY    -9 -15  72 CALM      30.63S
MOOSE LAKE     CLOUDY   -11 -18  70 NW3       30.57F
HINCKLEY       FAIR      -8 -15  71 NW3       30.60S
CLOQUET        CLOUDY   -13 -20  70 W13       30.54S WCI -34
MCGREGOR       CLOUDY   -13 -17  84 CALM      30.59S
$$
MNZ071>073-080-081-089-090-097-098-131100-
   Southwest Minnesota

CITY           SKY/WX    TMP DP  RH WIND       PRES   REMARKS
MONTEVIDEO     CLOUDY    -8 -11  84 CALM      30.65F
GRANITE FALLS  CLOUDY    -3  -8  81 W5        30.65F WCI -14
CANBY          CLOUDY    -1  -7  74 CALM      30.62F
MARSHALL       CLOUDY    -4 -10  75 NW8       30.63S WCI -19
REDWOOD FALLS  CLOUDY    -6 -10  83 NW5       30.62F WCI -17
OLIVIA         CLOUDY    -2  -9  71 N3        30.62F
PIPESTONE      CLOUDY    -6 -17  59 SE3       30.53F
WINDOM         CLOUDY    -8 -11  84 CALM      30.58S
WORTHINGTON    CLOUDY    -6 -11  77 N5        30.56F WCI -17
JACKSON        CLOUDY    -6 -13  71 NW5       30.58S WCI -17
TRACY          CLOUDY    -3  -8  79 NW6       30.60F WCI -16
SLAYTON        CLOUDY    -5 -10  82 N9        30.56F WCI -22
$$
MNZ065>067-074>077-082>085-091>093-131100-
   South Central Minnesota

CITY           SKY/WX    TMP DP  RH WIND       PRES   REMARKS
MANKATO        CLOUDY    -6 -15  65 NW5       30.61F WCI -17
NEW ULM        CLOUDY    -6 -11  77 CALM      30.62F
ST JAMES       CLOUDY    -6  -9  84 NW5       30.63S WCI -17
FAIRMONT       CLOUDY    -4  -9  77 NW8       30.59S WCI -19
GLENCOE        CLOUDY    -5 -11  75 CALM      30.63S
FARIBAULT      CLOUDY    -8 -15  71 NW3       30.62R
OWATONNA       CLOUDY    -8 -15  71 CALM      30.59F
WASECA         CLOUDY    -8 -15  71 N5        30.61F WCI -19
ALBERT LEA     CLOUDY    -8 -11  84 CALM      30.58F
$$
MNZ078>079-086>088-094>096-131100-
   Southeast Minnesota

CITY           SKY/WX    TMP DP  RH WIND       PRES   REMARKS
ROCHESTER      CLOUDY    -9 -15  75 NW8       30.57S WCI -25
RED WING       PTCLDY    -6 -17  59 W2        30.63S
STANTON        PTCLDY    -9 -16  72 CALM      30.62S
DODGE CENTER   CLOUDY    -8 -15  71 NW8       30.57S WCI -23
WINONA         PTCLDY     1 -11  55 N5        30.64S WCI  -8
AUSTIN         CLOUDY    -6 -11  77 NW6       30.58F WCI -18
PRESTON        CLOUDY    -7 -15  68 NW8       30.57S WCI -23
$$
ABBREVIATIONS USED IN REMARKS
   TC - TEMPERATURES IN CELSIUS
  WCI - WIND CHILL INDEX
   HX - HEAT INDEX
  VSB - VISIBILITY
$$




USA.gov is the U.S. government's official web portal to all federal, state and local government web resources and services.